DELTA 1 DEB, 21548

Orbit data source: Space-Track

DELTA 1 DEB, 21548 is space debris in SSO originally from a launch on Thu, 12 Jun 1975 UTC launched from the Air Force Western Test Range (AFWTR). Debris objects in space refer to the collection of defunct objects orbiting the Earth. Examples of debris include non-operational satellites, rocket bodies, and fragments generated from explosions, collisions, or faulty payload assembly.

Loading next visibility...
Identifier
21548, 1975-052HC
Orbit
SSO
Country
Flag of USUS
Related business
Manufacturer
Unknown
Mission
Spacecraft
Bus & Motor
Unknown
Mass
Unknown
Launch date (UTC)
1975-06-12 (51 years ago)
Launch vehicle
Unknown
Launch site
Air Force Western Test Range (AFWTR)
Object type
Payload
Rocket body
Debris
Shape & HBR
Unknown shape, 0.2 m
Radar Cross Section
Medium (>0.1 m² and <1 m²)

Expand to show TLE details & history
Last TLE update: 2 days ago

TLE from 2 days ago
0 DELTA 1 DEB
1 21548U 75052HC  26171.45980250  .00000197  00000-0  72256-3 0  9991
2 21548  99.8102 251.6120 0246237  22.2719 349.4064 12.95770662659886
Epoch: 2026-06-20T11:02Z
TLE epoch observation values (Epoch: 2026-06-20T11:02:06.936Z)
Latitude
10.93284°
Longitude
175.50478°
Altitude
1,095.468 km
Speed
7.393 km/s
True Right ascension
16h 38m 49s
True Declination
10° 52' 19"
Sunlit
Object was in full shadow at epoch
Visualization orbit readout
Latitude
Unknown
Longitude
Unknown
Altitude
Unknown
Speed
Unknown
Apparent Right ascension
Unknown
Apparent Declination
Unknown
Sunlit
N/A
Visualization observer readout
Local Sidereal Time
18:53:40
Azimuth
Unknown
Elevation
Unknown
Doppler factor
Unknown
Orbital elements
Apogee altitude
1,464.559 km
Perigee altitude
1,087.608 km
Semi-major axis
7,654.221 km
Eccentricity
0.02462
Inclination
99.8102°
RAAN
251.612°
Arg. of periapsis
22.2719°
True anomaly
348.8715°
Mean anomaly
349.4064°
Eccentric anomaly
349.1406°
Mean motion
3.24109 °/min
Orbital period
111.07 mins
BSTAR
0.00072256
Loading maneuver chart data...
Computing Atmospheric mass density...
Loading historical data...
Loading historical data...
Loading historical data...
Loading historical data...
Loading historical data...
Loading historical data...
Loading historical data...

Documentation

Showing up to 5 results
|